KAL9984 UGTB-RKSI

Flight info

Callsign KAL9984
Flight time N/A
Altitude 37000
Route DISKA1D DISKA M737 VERCA M747 SUBUT T923 ERLEV L850 BAKUV N701 LARGI B701 KRS B738 NEBIT B476 TIMGA A480 OTBOR/K0880F370 N147 GENDI Z621 ARBOL M610 RULAD/K0870S1130 A343 POSOT B215 FKG/K0874S1190 W188 GOVSA W66 DKO W69 HUR B339 LADIX W34 VAPGU W100 ORAVA W201 UNSEK A326 DONVO G597 AGAVO/N0470F390 Y644 REBIT REBIT2H
Aircraft B77W/H-SDE2FGHIJ1J3J5M1P2RWXYZ/LB1D1

Departure

Time 2026-05-04 21:04
Airport Tbilisi International Airport (UGTB)

Arrival

Time N/A
Airport Incheon International Airport (RKSI)
Time Latitude Longitude Altitude Speed Heading
2026-05-04 20:25 41.67253 44.95909 1531 ft 0 kts 43°
2026-05-04 20:46 41.67238 44.95891 1523 ft 4 kts 43°
2026-05-04 20:46 41.67219 44.95866 1523 ft 4 kts 43°
2026-05-04 20:47 41.67199 44.95841 1523 ft 4 kts 43°
2026-05-04 20:47 41.67180 44.95818 1523 ft 2 kts 43°
2026-05-04 20:47 41.67162 44.95799 1523 ft 4 kts 20°
2026-05-04 20:47 41.67145 44.95794 1523 ft 4 kts 339°
2026-05-04 20:48 41.67128 44.95810 1523 ft 4 kts 310°
2026-05-04 20:48 41.67112 44.95835 1523 ft 1 kts 314°
2026-05-04 20:52 41.67131 44.95809 1523 ft 4 kts 311°
2026-05-04 20:52 41.67134 44.95804 1523 ft 0 kts 311°
2026-05-04 20:53 41.67158 44.95767 1525 ft 16 kts 309°
2026-05-04 20:53 41.67195 44.95717 1524 ft 3 kts 314°
2026-05-04 20:53 41.67209 44.95699 1527 ft 3 kts 315°
2026-05-04 20:54 41.67223 44.95680 1524 ft 3 kts 311°
2026-05-04 20:54 41.67229 44.95655 1523 ft 3 kts 278°
2026-05-04 20:54 41.67224 44.95629 1526 ft 3 kts 247°
2026-05-04 20:54 41.67212 44.95606 1523 ft 3 kts 232°
2026-05-04 20:55 41.67207 44.95598 1523 ft 0 kts 228°
2026-05-04 20:55 41.67199 44.95586 1528 ft 5 kts 227°
2026-05-04 20:56 41.67133 44.95501 1526 ft 12 kts 223°
2026-05-04 20:56 41.67069 44.95419 1524 ft 13 kts 224°
2026-05-04 20:56 41.67005 44.95334 1525 ft 13 kts 225°
2026-05-04 20:56 41.66970 44.95287 1526 ft 0 kts 222°
2026-05-04 20:57 41.66963 44.95278 1524 ft 8 kts 223°
2026-05-04 20:57 41.66926 44.95231 1523 ft 0 kts 225°
2026-05-04 20:57 41.66925 44.95230 1523 ft 0 kts 225°
2026-05-04 20:58 41.66918 44.95221 1523 ft 8 kts 223°
2026-05-04 20:58 41.66842 44.95214 1523 ft 13 kts 145°
2026-05-04 20:58 41.66775 44.95299 1525 ft 13 kts 133°
2026-05-04 20:58 41.66689 44.95415 1523 ft 20 kts 137°
2026-05-04 20:59 41.66586 44.95544 1523 ft 20 kts 137°
2026-05-04 20:59 41.66487 44.95666 1527 ft 20 kts 137°
2026-05-04 20:59 41.66397 44.95777 1524 ft 20 kts 137°
2026-05-04 20:59 41.66294 44.95905 1526 ft 20 kts 137°
2026-05-04 21:00 41.66191 44.96032 1523 ft 20 kts 137°
2026-05-04 21:00 41.66088 44.96160 1522 ft 20 kts 137°
2026-05-04 21:00 41.65988 44.96293 1525 ft 20 kts 135°
2026-05-04 21:00 41.65888 44.96425 1525 ft 14 kts 133°
2026-05-04 21:01 41.65870 44.96451 1521 ft 7 kts 137°
2026-05-04 21:01 41.65848 44.96459 1524 ft 0 kts 180°
2026-05-04 21:01 41.65845 44.96458 1522 ft 2 kts 193°
2026-05-04 21:01 41.65859 44.96464 1522 ft 7 kts 220°
2026-05-04 21:02 41.65864 44.96426 1521 ft 14 kts 293°
2026-05-04 21:02 41.65907 44.96370 1524 ft 0 kts 318°
2026-05-04 21:03 41.65910 44.96367 1525 ft 7 kts 318°
2026-05-04 21:03 41.66164 44.96050 1522 ft 102 kts 316°
2026-05-04 21:04 41.66937 44.95068 1561 ft 198 kts 317°
2026-05-04 21:04 41.68035 44.93706 2619 ft 217 kts 317°
2026-05-04 21:04 41.69128 44.92344 4324 ft 208 kts 316°
2026-05-04 21:04 41.70158 44.91148 5472 ft 189 kts 313°
2026-05-04 21:05 41.70840 44.89585 5907 ft 204 kts 278°
2026-05-04 21:05 41.70745 44.87611 6160 ft 227 kts 255°
2026-05-04 21:05 41.70307 44.85431 6398 ft 257 kts 253°
2026-05-04 21:05 41.69820 44.83079 7127 ft 266 kts 253°
2026-05-04 21:06 41.69319 44.80673 8034 ft 269 kts 254°
2026-05-04 21:06 41.68822 44.78269 8843 ft 270 kts 243°
2026-05-04 21:06 41.67663 44.76300 9718 ft 273 kts 217°
2026-05-04 21:06 41.65925 44.75260 10563 ft 281 kts 191°
2026-05-04 21:07 41.63869 44.75293 10930 ft 309 kts 169°
2026-05-04 21:07 41.61752 44.76187 11158 ft 339 kts 161°
2026-05-04 21:07 41.59461 44.77412 11673 ft 357 kts 159°
2026-05-04 21:07 41.57158 44.78697 12686 ft 360 kts 159°
2026-05-04 21:08 41.54848 44.79990 13886 ft 357 kts 159°
2026-05-04 21:08 41.52585 44.81251 14842 ft 361 kts 159°
2026-05-04 21:08 41.50218 44.82561 15655 ft 368 kts 159°
2026-05-04 21:08 41.47823 44.83876 16476 ft 374 kts 159°
2026-05-04 21:09 41.45389 44.85201 17358 ft 379 kts 159°
2026-05-04 21:09 41.42933 44.86529 18211 ft 384 kts 159°
2026-05-04 21:09 41.40435 44.87867 18924 ft 387 kts 158°
2026-05-04 21:09 41.38004 44.89499 19509 ft 397 kts 147°
2026-05-04 21:10 41.35967 44.92022 20187 ft 407 kts 130°
2026-05-04 21:10 41.34474 44.95242 20956 ft 414 kts 117°
2026-05-04 21:10 41.33586 44.98870 21612 ft 421 kts 107°
2026-05-04 21:10 41.32883 45.02748 22171 ft 430 kts 106°
2026-05-04 21:11 41.32210 45.06650 22839 ft 435 kts 106°
2026-05-04 21:11 41.31528 45.10583 23537 ft 438 kts 106°
2026-05-04 21:11 41.30821 45.14546 24106 ft 442 kts 107°
2026-05-04 21:11 41.30102 45.18477 24646 ft 447 kts 108°
2026-05-04 21:12 41.29343 45.22553 25171 ft 451 kts 108°
2026-05-04 21:12 41.28582 45.26586 25681 ft 456 kts 109°
2026-05-04 21:12 41.27797 45.30729 26190 ft 460 kts 109°
2026-05-04 21:12 41.27010 45.34872 26694 ft 465 kts 109°
2026-05-04 21:13 41.26213 45.39065 27179 ft 469 kts 110°
2026-05-04 21:13 41.25414 45.43259 27654 ft 473 kts 110°
2026-05-04 21:13 41.24597 45.47549 28114 ft 478 kts 110°
2026-05-04 21:13 41.23778 45.51840 28567 ft 482 kts 110°
2026-05-04 21:14 41.22951 45.56167 28981 ft 485 kts 110°
2026-05-04 21:14 41.22115 45.60533 29399 ft 489 kts 111°
2026-05-04 21:14 41.21261 45.64931 29807 ft 491 kts 112°
2026-05-04 21:14 41.20235 45.69222 30254 ft 487 kts 116°
2026-05-04 21:15 41.19109 45.73456 30716 ft 486 kts 116°
2026-05-04 21:15 41.17966 45.77677 31063 ft 488 kts 117°
2026-05-04 21:15 41.16808 45.81944 31232 ft 494 kts 117°
2026-05-04 21:15 41.15643 45.86257 31426 ft 498 kts 116°
2026-05-04 21:16 41.14493 45.90547 31667 ft 501 kts 116°
2026-05-04 21:16 41.13332 45.94899 31976 ft 501 kts 116°
2026-05-04 21:16 41.12154 45.99324 32319 ft 501 kts 117°
2026-05-04 21:16 41.10993 46.03677 32655 ft 501 kts 117°
2026-05-04 21:17 41.09830 46.08025 33110 ft 498 kts 117°
2026-05-04 21:17 41.08699 46.12257 33870 ft 489 kts 117°
2026-05-04 21:17 41.07549 46.16541 34329 ft 487 kts 117°
2026-05-04 21:17 41.06407 46.20764 34587 ft 489 kts 117°
2026-05-04 21:18 41.05272 46.24959 34794 ft 491 kts 117°
2026-05-04 21:18 41.04118 46.29224 35070 ft 492 kts 117°
2026-05-04 21:18 41.02966 46.33514 35385 ft 492 kts 117°
2026-05-04 21:18 41.01818 46.37822 35681 ft 492 kts 117°
2026-05-04 21:19 41.00699 46.42029 35949 ft 493 kts 117°
2026-05-04 21:19 40.99540 46.46381 36235 ft 494 kts 117°
2026-05-04 21:19 40.98395 46.50668 36484 ft 494 kts 117°
2026-05-04 21:19 40.97248 46.54955 36727 ft 495 kts 117°
2026-05-04 21:20 40.94928 46.63580 36842 ft 500 kts 117°
2026-05-04 21:20 40.92604 46.72216 36841 ft 495 kts 117°
2026-05-04 21:21 40.90415 46.80787 36853 ft 498 kts 112°
2026-05-04 21:21 40.89219 46.89959 36846 ft 508 kts 102°
2026-05-04 21:22 40.88610 46.99293 36844 ft 510 kts 101°
2026-05-04 21:22 40.87985 47.08642 36842 ft 511 kts 102°
2026-05-04 21:23 40.87304 47.18000 36828 ft 512 kts 102°
2026-05-04 21:23 40.86601 47.27380 36842 ft 513 kts 102°
2026-05-04 21:24 40.85892 47.36778 36854 ft 515 kts 102°
2026-05-04 21:24 40.85176 47.46197 36850 ft 516 kts 102°
2026-05-04 21:25 40.84478 47.55638 36851 ft 518 kts 101°
2026-05-04 21:25 40.83899 47.65126 36850 ft 519 kts 101°
2026-05-04 21:26 40.83332 47.74704 36854 ft 520 kts 101°
2026-05-04 21:26 40.82745 47.84229 36861 ft 521 kts 101°
2026-05-04 21:27 40.82240 47.92148 36856 ft 522 kts 101°
2026-05-04 21:27 40.81620 48.01709 36843 ft 522 kts 101°
2026-05-04 21:28 40.80892 48.12811 36848 ft 523 kts 101°
2026-05-04 21:28 40.80256 48.22380 36842 ft 524 kts 101°
2026-05-04 21:29 40.79717 48.30407 36838 ft 524 kts 101°
2026-05-04 21:29 40.79068 48.39978 36832 ft 524 kts 101°
2026-05-04 21:30 40.78412 48.49549 36835 ft 523 kts 101°
2026-05-04 21:30 40.77630 48.60730 36841 ft 523 kts 101°
2026-05-04 21:31 40.76727 48.73499 36845 ft 522 kts 100°
2026-05-04 21:32 40.76044 48.83029 36847 ft 521 kts 100°
2026-05-04 21:32 40.75353 48.92538 36846 ft 520 kts 100°
2026-05-04 21:33 40.74656 49.02039 36855 ft 521 kts 100°
2026-05-04 21:33 40.73952 49.11537 36877 ft 520 kts 100°
2026-05-04 21:34 40.73151 49.21010 36874 ft 517 kts 105°
2026-05-04 21:34 40.71349 49.30107 36887 ft 508 kts 117°
2026-05-04 21:35 40.68700 49.38798 36885 ft 509 kts 118°
2026-05-04 21:35 40.66040 49.47521 36877 ft 511 kts 117°
2026-05-04 21:36 40.63436 49.56238 36891 ft 512 kts 117°
2026-05-04 21:36 40.60694 49.64872 36879 ft 511 kts 120°
2026-05-04 21:37 40.57799 49.73488 36877 ft 512 kts 120°
2026-05-04 21:37 40.54920 49.82125 36877 ft 512 kts 120°
2026-05-04 21:38 40.52080 49.90713 36880 ft 512 kts 120°
2026-05-04 21:38 40.49232 49.99299 36883 ft 512 kts 120°
2026-05-04 21:39 40.46855 50.08181 36894 ft 520 kts 109°
2026-05-04 21:39 40.45521 50.17563 36885 ft 524 kts 104°
2026-05-04 21:40 40.44327 50.27008 36873 ft 524 kts 104°
2026-05-04 21:40 40.43084 50.36482 36868 ft 523 kts 105°
2026-05-04 21:41 40.41809 50.45870 36864 ft 522 kts 105°
2026-05-04 21:41 40.40519 50.55246 36866 ft 522 kts 105°
2026-05-04 21:42 40.39226 50.64602 36869 ft 521 kts 105°
2026-05-04 21:42 40.37930 50.73949 36868 ft 521 kts 105°
2026-05-04 21:43 40.36626 50.83291 36867 ft 520 kts 105°
2026-05-04 21:43 40.35318 50.92608 36876 ft 520 kts 105°
2026-05-04 21:44 40.34002 51.01923 36870 ft 519 kts 105°
2026-05-04 21:44 40.32669 51.11301 36874 ft 519 kts 105°
2026-05-04 21:45 40.31341 51.20588 36873 ft 519 kts 105°
2026-05-04 21:45 40.30005 51.29879 36870 ft 519 kts 105°
2026-05-04 21:46 40.28662 51.39166 36867 ft 519 kts 105°
2026-05-04 21:46 40.27312 51.48452 36866 ft 519 kts 105°
2026-05-04 21:47 40.25953 51.57735 36869 ft 519 kts 105°
2026-05-04 21:47 40.24586 51.67025 36864 ft 520 kts 105°
2026-05-04 21:48 40.23214 51.76313 36864 ft 520 kts 105°
2026-05-04 21:48 40.21831 51.85615 36865 ft 520 kts 105°
2026-05-04 21:49 40.20443 51.94901 36857 ft 521 kts 105°
2026-05-04 21:49 40.19045 52.04201 36861 ft 521 kts 105°
2026-05-04 21:50 40.17638 52.13501 36867 ft 521 kts 105°
2026-05-04 21:50 40.16225 52.22794 36867 ft 521 kts 106°
2026-05-04 21:51 40.14806 52.32075 36860 ft 521 kts 106°
2026-05-04 21:51 40.13367 52.41433 36858 ft 521 kts 106°
2026-05-04 21:52 40.11930 52.50718 36858 ft 521 kts 106°
2026-05-04 21:52 40.10487 52.59999 36857 ft 521 kts 106°
2026-05-04 21:53 40.09037 52.69269 36864 ft 521 kts 106°
2026-05-04 21:53 40.07579 52.78545 36878 ft 521 kts 106°
2026-05-04 21:54 40.06351 52.86322 36879 ft 522 kts 106°
2026-05-04 21:54 40.04975 52.95625 36873 ft 525 kts 99°
2026-05-04 21:54 40.04983 53.01956 36889 ft 530 kts 86°
2026-05-04 21:55 40.05348 53.05186 36891 ft 532 kts 80°
2026-05-04 21:55 40.07677 53.14355 36893 ft 533 kts 68°
2026-05-04 21:56 40.10454 53.23352 36879 ft 535 kts 68°
2026-05-04 21:56 40.13198 53.32406 36868 ft 536 kts 69°
2026-05-04 21:57 40.15873 53.41506 36862 ft 537 kts 69°
2026-05-04 21:57 40.18523 53.50650 36862 ft 537 kts 69°
2026-05-04 21:58 40.21164 53.59790 36863 ft 537 kts 69°
2026-05-04 21:58 40.23802 53.68933 36860 ft 537 kts 69°
2026-05-04 21:59 40.26434 53.78077 36858 ft 536 kts 69°
2026-05-04 21:59 40.29056 53.87218 36858 ft 536 kts 69°
2026-05-04 22:00 40.31667 53.96351 36856 ft 535 kts 70°
2026-05-04 22:00 40.34264 54.05472 36850 ft 534 kts 70°
2026-05-04 22:01 40.36852 54.14592 36853 ft 533 kts 70°
2026-05-04 22:01 40.39431 54.23714 36863 ft 533 kts 70°
2026-05-04 22:02 40.42001 54.32834 36857 ft 533 kts 70°
2026-05-04 22:02 40.44561 54.41954 36861 ft 532 kts 70°
2026-05-04 22:03 40.47112 54.51070 36848 ft 531 kts 70°
2026-05-04 22:03 40.49654 54.60188 36860 ft 530 kts 70°
2026-05-04 22:04 40.52177 54.69272 36853 ft 529 kts 70°
2026-05-04 22:04 40.54692 54.78358 36850 ft 528 kts 70°
2026-05-04 22:05 40.57192 54.87424 36852 ft 526 kts 70°
2026-05-04 22:05 40.59676 54.96462 36854 ft 525 kts 70°
2026-05-04 22:06 40.62151 55.05501 36851 ft 525 kts 70°
2026-05-04 22:06 40.64617 55.14538 36848 ft 524 kts 70°
2026-05-04 22:07 40.67074 55.23575 36860 ft 524 kts 70°
2026-05-04 22:07 40.69523 55.32616 36857 ft 524 kts 70°
2026-05-04 22:08 40.71966 55.41667 36849 ft 524 kts 70°
2026-05-04 22:08 40.74401 55.50724 36847 ft 524 kts 70°
2026-05-04 22:09 40.76835 55.59804 36850 ft 525 kts 70°
2026-05-04 22:09 40.79257 55.68880 36846 ft 525 kts 70°
2026-05-04 22:10 40.81679 55.77982 36844 ft 525 kts 70°
2026-05-04 22:10 40.84092 55.87090 36838 ft 525 kts 70°
2026-05-04 22:11 40.86513 55.96260 36849 ft 526 kts 70°
2026-05-04 22:11 40.88909 56.05369 36836 ft 526 kts 70°
2026-05-04 22:12 40.91306 56.14512 36834 ft 525 kts 70°
2026-05-04 22:12 40.93690 56.23646 36839 ft 525 kts 70°
2026-05-04 22:13 40.96064 56.32773 36840 ft 524 kts 70°
2026-05-04 22:13 40.98428 56.41892 36844 ft 523 kts 70°
2026-05-04 22:14 41.00680 56.51055 36847 ft 523 kts 75°
2026-05-04 22:14 41.01998 56.60519 36853 ft 522 kts 81°
2026-05-04 22:15 41.03059 56.70039 36850 ft 522 kts 81°
2026-05-04 22:15 41.04141 56.79549 36846 ft 521 kts 81°
2026-05-04 22:16 41.05250 56.89028 36851 ft 520 kts 81°
2026-05-04 22:16 41.06362 56.98500 36858 ft 520 kts 81°
2026-05-04 22:17 41.07463 57.07963 36857 ft 520 kts 81°
2026-05-04 22:17 41.08554 57.17429 36867 ft 519 kts 81°
2026-05-04 22:18 41.09636 57.26901 36863 ft 519 kts 81°
2026-05-04 22:18 41.10709 57.36361 36866 ft 519 kts 81°
2026-05-04 22:19 41.11775 57.45830 36868 ft 519 kts 81°
2026-05-04 22:19 41.12830 57.55277 36862 ft 518 kts 81°
2026-05-04 22:20 41.13878 57.64731 36868 ft 517 kts 81°
2026-05-04 22:20 41.14917 57.74173 36876 ft 517 kts 81°
2026-05-04 22:21 41.15947 57.83607 36873 ft 516 kts 81°
2026-05-04 22:21 41.16965 57.93010 36880 ft 515 kts 81°
2026-05-04 22:22 41.17976 58.02415 36873 ft 514 kts 81°
2026-05-04 22:22 41.18978 58.11807 36890 ft 513 kts 81°
2026-05-04 22:23 41.19966 58.21183 36881 ft 513 kts 81°
2026-05-04 22:23 41.20946 58.30557 36887 ft 512 kts 81°
2026-05-04 22:24 41.21918 58.39927 36888 ft 512 kts 81°
2026-05-04 22:24 41.22882 58.49290 36890 ft 511 kts 81°
2026-05-04 22:25 41.23837 58.58654 36892 ft 511 kts 81°
2026-05-04 22:25 41.24785 58.68008 36888 ft 511 kts 81°
2026-05-04 22:26 41.25724 58.77366 36892 ft 511 kts 82°
2026-05-04 22:26 41.26655 58.86718 36893 ft 510 kts 82°
2026-05-04 22:27 41.27579 58.96070 36896 ft 510 kts 82°
2026-05-04 22:27 41.28495 59.05424 36906 ft 510 kts 82°
2026-05-04 22:28 41.29402 59.14768 36901 ft 509 kts 82°
2026-05-04 22:28 41.30300 59.24108 36895 ft 509 kts 82°
2026-05-04 22:29 41.31190 59.33432 36901 ft 508 kts 82°
2026-05-04 22:29 41.32071 59.42759 36904 ft 508 kts 82°
2026-05-04 22:30 41.32803 59.50559 36907 ft 507 kts 82°
2026-05-04 22:30 41.33671 59.59872 36902 ft 506 kts 82°
2026-05-04 22:31 41.34833 59.69092 36901 ft 504 kts 73°
2026-05-04 22:31 41.36969 59.77946 36909 ft 502 kts 69°
2026-05-04 22:32 41.39202 59.86765 36913 ft 502 kts 70°
2026-05-04 22:32 41.41382 59.95618 36916 ft 503 kts 70°
2026-05-04 22:33 41.43528 60.04479 36918 ft 503 kts 70°
2026-05-04 22:33 41.45670 60.13346 36912 ft 503 kts 70°
2026-05-04 22:34 41.47806 60.22225 36917 ft 503 kts 70°
2026-05-04 22:34 41.49915 60.31187 36913 ft 503 kts 71°
2026-05-04 22:35 41.51996 60.40105 36914 ft 503 kts 71°
2026-05-04 22:35 41.54059 60.48949 36914 ft 502 kts 71°
2026-05-04 22:36 41.56130 60.57853 36915 ft 502 kts 71°
2026-05-04 22:36 41.58195 60.66755 36913 ft 501 kts 70°
2026-05-04 22:37 41.60456 60.75554 36916 ft 500 kts 68°
2026-05-04 22:37 41.62815 60.84290 36919 ft 500 kts 68°
2026-05-04 22:38 41.65158 60.93100 36920 ft 499 kts 69°
2026-05-04 22:38 41.67448 61.01859 36930 ft 499 kts 69°
2026-05-04 22:39 41.69738 61.10685 36928 ft 498 kts 69°
2026-05-04 22:39 41.72004 61.19444 36930 ft 498 kts 69°
2026-05-04 22:40 41.74264 61.28201 36934 ft 497 kts 69°
2026-05-04 22:40 41.76516 61.36961 36936 ft 497 kts 69°
2026-05-04 22:41 41.78760 61.45720 36938 ft 497 kts 69°
2026-05-04 22:41 41.80995 61.54477 36903 ft 500 kts 69°
2026-05-04 22:42 41.83261 61.63383 36942 ft 510 kts 69°
2026-05-04 22:42 41.85570 61.72500 36946 ft 514 kts 69°
2026-05-04 22:43 41.87859 61.81598 36942 ft 514 kts 69°
2026-05-04 22:43 41.90140 61.90742 36937 ft 513 kts 70°
2026-05-04 22:44 41.92392 61.99800 36941 ft 510 kts 70°
2026-05-04 22:44 41.94630 62.08822 36944 ft 507 kts 70°
2026-05-04 22:45 41.96849 62.17796 36947 ft 505 kts 70°
2026-05-04 22:45 42.00149 62.31202 36950 ft 503 kts 70°
2026-05-04 22:46 42.02338 62.40134 36950 ft 502 kts 70°
2026-05-04 22:46 42.04514 62.49053 36954 ft 502 kts 70°
2026-05-04 22:47 42.06685 62.57980 36958 ft 502 kts 70°
2026-05-04 22:47 42.08851 62.66918 36957 ft 502 kts 70°
2026-05-04 22:48 42.11033 62.75930 36960 ft 503 kts 70°
2026-05-04 22:48 42.13175 62.84826 36964 ft 503 kts 70°
2026-05-04 22:49 42.15334 62.93852 36960 ft 503 kts 71°
2026-05-04 22:49 42.17475 63.02818 36961 ft 502 kts 71°
2026-05-04 22:50 42.19618 63.11772 36967 ft 502 kts 71°
2026-05-04 22:50 42.21759 63.20733 36967 ft 501 kts 71°
2026-05-04 22:51 42.23887 63.29686 36971 ft 501 kts 71°
2026-05-04 22:51 42.26002 63.38624 36972 ft 500 kts 71°
2026-05-04 22:52 42.28110 63.47568 36976 ft 499 kts 71°
2026-05-04 22:52 42.30220 63.56556 36977 ft 499 kts 71°
2026-05-04 22:53 42.32310 63.65493 36977 ft 498 kts 71°
2026-05-04 22:53 42.34393 63.74438 36978 ft 498 kts 71°
2026-05-04 22:54 42.36467 63.83378 36981 ft 498 kts 71°
2026-05-04 22:54 42.38534 63.92323 36983 ft 498 kts 71°
2026-05-04 22:55 42.40594 64.01278 36979 ft 499 kts 71°
2026-05-04 22:55 42.42610 64.10324 36979 ft 499 kts 72°
2026-05-04 22:56 42.44260 64.17798 36980 ft 499 kts 72°
2026-05-04 22:56 42.46254 64.26778 36980 ft 499 kts 72°
2026-05-04 22:57 42.48292 64.35823 36982 ft 498 kts 71°
2026-05-04 22:57 42.50317 64.44821 36982 ft 498 kts 72°
2026-05-04 22:58 42.52324 64.53803 36980 ft 498 kts 72°
2026-05-04 22:58 42.54321 64.62786 36981 ft 498 kts 72°
2026-05-04 22:59 42.56322 64.71830 36982 ft 497 kts 72°
2026-05-04 22:59 42.58300 64.80806 36984 ft 496 kts 72°
2026-05-04 23:00 42.60285 64.89849 36977 ft 496 kts 72°
2026-05-04 23:00 42.62243 64.98806 36986 ft 495 kts 72°
2026-05-04 23:01 42.64181 65.07711 36988 ft 494 kts 72°
2026-05-04 23:01 42.66121 65.16666 36983 ft 494 kts 72°
2026-05-04 23:02 42.68067 65.25683 36985 ft 494 kts 72°
2026-05-04 23:02 42.69992 65.34639 36989 ft 493 kts 72°
2026-05-04 23:03 42.71909 65.43596 36985 ft 493 kts 72°
2026-05-04 23:03 42.73815 65.52544 36986 ft 493 kts 72°
2026-05-04 23:04 42.75717 65.61509 36988 ft 493 kts 72°
2026-05-04 23:04 42.77613 65.70479 36986 ft 493 kts 72°
2026-05-04 23:05 42.79515 65.79510 36990 ft 493 kts 72°
2026-05-04 23:05 42.81416 65.88475 36986 ft 493 kts 72°
2026-05-04 23:06 42.83311 65.97442 36979 ft 493 kts 72°
2026-05-04 23:06 42.85198 66.06417 36980 ft 492 kts 72°
2026-05-04 23:07 42.87051 66.15349 36984 ft 492 kts 73°
2026-05-04 23:07 42.88890 66.24400 36996 ft 492 kts 73°
2026-05-04 23:08 42.90709 66.33392 36985 ft 492 kts 73°
2026-05-04 23:08 42.92535 66.42440 36978 ft 491 kts 73°
2026-05-04 23:09 42.94342 66.51420 36982 ft 491 kts 73°
2026-05-04 23:09 42.96133 66.60368 36993 ft 491 kts 73°
2026-05-04 23:10 42.97936 66.69410 36985 ft 490 kts 73°
2026-05-04 23:10 42.99720 66.78396 36984 ft 490 kts 73°
2026-05-04 23:11 43.01501 66.87375 36991 ft 490 kts 73°
2026-05-04 23:11 43.03279 66.96362 36989 ft 490 kts 73°
2026-05-04 23:12 43.05050 67.05353 36993 ft 489 kts 73°
2026-05-04 23:12 43.06810 67.14335 36989 ft 489 kts 73°
2026-05-04 23:13 43.08564 67.23325 36990 ft 489 kts 73°
2026-05-04 23:13 43.10309 67.32313 36990 ft 489 kts 73°
2026-05-04 23:14 43.12045 67.41293 36990 ft 488 kts 73°
2026-05-04 23:14 43.13757 67.50202 36991 ft 488 kts 74°
2026-05-04 23:15 43.15487 67.59273 36990 ft 488 kts 74°
2026-05-04 23:15 43.17192 67.68249 36994 ft 487 kts 74°
2026-05-04 23:16 43.18893 67.77234 36990 ft 487 kts 74°
2026-05-04 23:16 43.20582 67.86185 36990 ft 486 kts 74°
2026-05-04 23:17 43.22279 67.95183 36993 ft 486 kts 74°
2026-05-04 23:17 43.23966 68.04169 36989 ft 486 kts 74°
2026-05-04 23:18 43.25641 68.13144 36988 ft 485 kts 74°
2026-05-04 23:18 43.27308 68.22119 36992 ft 485 kts 74°
2026-05-04 23:19 43.28968 68.31092 36993 ft 485 kts 74°
2026-05-04 23:19 43.30478 68.40118 36991 ft 485 kts 78°
2026-05-04 23:20 43.31561 68.49268 37001 ft 485 kts 79°
2026-05-04 23:20 43.32658 68.58417 36996 ft 485 kts 79°
2026-05-04 23:21 43.33541 68.67610 36997 ft 486 kts 82°
2026-05-04 23:21 43.34255 68.76823 36998 ft 485 kts 82°
2026-05-04 23:22 43.34999 68.86036 37003 ft 485 kts 82°
2026-05-04 23:22 43.35770 68.95242 37007 ft 485 kts 82°
2026-05-04 23:23 43.36537 69.04441 37016 ft 484 kts 82°
2026-05-04 23:23 43.37294 69.13634 37008 ft 484 kts 82°
2026-05-04 23:24 43.38057 69.22823 37017 ft 484 kts 82°
2026-05-04 23:24 43.38856 69.32000 37019 ft 483 kts 82°
2026-05-04 23:25 43.39650 69.41168 37020 ft 483 kts 82°
2026-05-04 23:25 43.40430 69.50340 37015 ft 483 kts 82°
2026-05-04 23:26 43.41070 69.57956 37027 ft 482 kts 82°
2026-05-04 23:26 43.41833 69.67124 37027 ft 482 kts 82°
2026-05-04 23:27 43.42592 69.76295 37024 ft 482 kts 82°
2026-05-04 23:27 43.43368 69.85451 37030 ft 482 kts 82°
2026-05-04 23:28 43.44151 69.94605 37026 ft 481 kts 82°
2026-05-04 23:28 43.44923 70.03741 37035 ft 481 kts 82°
2026-05-04 23:29 43.45684 70.12888 37031 ft 481 kts 82°
2026-05-04 23:29 43.46437 70.22026 37037 ft 480 kts 82°
2026-05-04 23:30 43.47183 70.31170 37035 ft 480 kts 82°
2026-05-04 23:30 43.47921 70.40304 37038 ft 480 kts 82°
2026-05-04 23:31 43.48651 70.49442 37040 ft 480 kts 82°
2026-05-04 23:31 43.49374 70.58578 37039 ft 480 kts 82°
2026-05-04 23:32 43.50090 70.67716 37039 ft 480 kts 82°
2026-05-04 23:32 43.50799 70.76860 37040 ft 480 kts 83°
2026-05-04 23:33 43.51502 70.86005 37044 ft 480 kts 83°
2026-05-04 23:33 43.52191 70.95163 37043 ft 480 kts 83°
2026-05-04 23:34 43.52868 71.04307 37041 ft 480 kts 83°
2026-05-04 23:34 43.53539 71.13465 37041 ft 480 kts 83°
2026-05-04 23:35 43.54204 71.22625 37040 ft 480 kts 83°
2026-05-04 23:35 43.54862 71.31787 37041 ft 480 kts 83°
2026-05-04 23:36 43.55513 71.40958 37040 ft 480 kts 83°
2026-05-04 23:36 43.56160 71.50181 37041 ft 480 kts 83°
2026-05-04 23:37 43.56796 71.59350 37044 ft 480 kts 84°
2026-05-04 23:37 43.57425 71.68521 37043 ft 480 kts 84°
2026-05-04 23:38 43.58046 71.77695 37043 ft 480 kts 84°
2026-05-04 23:38 43.58660 71.86870 37043 ft 480 kts 84°
2026-05-04 23:39 43.59271 71.96107 37045 ft 480 kts 84°
2026-05-04 23:39 43.59870 72.05283 37047 ft 481 kts 84°
2026-05-04 23:40 43.60462 72.14473 37046 ft 481 kts 84°
2026-05-04 23:40 43.61047 72.23656 37047 ft 481 kts 84°
2026-05-04 23:41 43.61628 72.32907 37045 ft 481 kts 84°
2026-05-04 23:41 43.62198 72.42095 37053 ft 481 kts 84°
2026-05-04 23:42 43.62762 72.51300 37050 ft 481 kts 84°
2026-05-04 23:42 43.63318 72.60501 37052 ft 481 kts 84°
2026-05-04 23:43 43.63866 72.69693 37047 ft 481 kts 84°
2026-05-04 23:43 43.64407 72.78902 37058 ft 481 kts 85°
2026-05-04 23:44 43.64941 72.88118 37060 ft 481 kts 85°
2026-05-04 23:44 43.65468 72.97330 37052 ft 482 kts 85°
2026-05-04 23:45 43.65990 73.06611 37058 ft 482 kts 85°
2026-05-04 23:45 43.66503 73.15837 37057 ft 482 kts 85°
2026-05-04 23:46 43.67008 73.25070 37060 ft 482 kts 85°
2026-05-04 23:46 43.67505 73.34301 37061 ft 482 kts 85°
2026-05-04 23:47 43.67996 73.43543 37061 ft 482 kts 85°
2026-05-04 23:47 43.68479 73.52788 37059 ft 482 kts 85°
2026-05-04 23:48 43.68955 73.62030 37060 ft 482 kts 85°
2026-05-04 23:48 43.69425 73.71278 37060 ft 482 kts 85°
2026-05-04 23:49 43.69526 73.80539 37066 ft 483 kts 92°
2026-05-04 23:49 43.69219 73.89805 37054 ft 483 kts 92°
2026-05-04 23:50 43.68919 73.99075 37057 ft 483 kts 92°
2026-05-04 23:50 43.68645 74.08362 37054 ft 483 kts 92°
2026-05-04 23:51 43.68370 74.17650 37052 ft 484 kts 92°
2026-05-04 23:51 43.68084 74.27010 37050 ft 485 kts 92°
2026-05-04 23:52 43.67800 74.36315 37054 ft 486 kts 92°
2026-05-04 23:52 43.67509 74.45645 37053 ft 486 kts 92°
2026-05-04 23:53 43.67208 74.55046 37060 ft 487 kts 92°
2026-05-04 23:53 43.66899 74.64402 37067 ft 488 kts 92°
2026-05-04 23:54 43.66582 74.73769 37072 ft 488 kts 92°
2026-05-04 23:54 43.66259 74.83123 37078 ft 488 kts 92°
2026-05-04 23:55 43.65927 74.92473 37083 ft 487 kts 92°
2026-05-04 23:56 43.65473 75.04951 37088 ft 486 kts 92°
2026-05-04 23:56 43.65123 75.14327 37092 ft 485 kts 92°
2026-05-04 23:57 43.64772 75.23549 37094 ft 484 kts 92°
2026-05-04 23:57 43.64408 75.32887 37097 ft 484 kts 92°
2026-05-04 23:58 43.64040 75.42166 37102 ft 484 kts 92°
2026-05-04 23:58 43.63664 75.51451 37106 ft 485 kts 92°
2026-05-04 23:59 43.63275 75.60748 37108 ft 485 kts 93°
2026-05-04 23:59 43.62874 75.70054 37112 ft 486 kts 93°
2026-05-05 00:00 43.62466 75.79383 37108 ft 487 kts 93°
2026-05-05 00:00 43.62052 75.88713 37110 ft 488 kts 93°
2026-05-05 00:01 43.61626 75.98122 37116 ft 488 kts 93°
2026-05-05 00:01 43.61195 76.07478 37117 ft 489 kts 93°
2026-05-05 00:02 43.60755 76.16846 37113 ft 489 kts 93°
2026-05-05 00:02 43.60309 76.26222 37115 ft 490 kts 93°
2026-05-05 00:03 43.59944 76.35605 37113 ft 489 kts 90°
2026-05-05 00:03 43.59920 76.44992 37112 ft 489 kts 89°
2026-05-05 00:04 43.59928 76.54381 37111 ft 490 kts 89°
2026-05-05 00:04 43.59897 76.63778 37108 ft 490 kts 90°
2026-05-05 00:05 43.59846 76.73242 37107 ft 490 kts 90°
2026-05-05 00:05 43.59787 76.82640 37105 ft 490 kts 90°
2026-05-05 00:06 43.59660 76.92057 37104 ft 491 kts 90°
2026-05-05 00:06 43.59538 77.01470 37100 ft 491 kts 90°
2026-05-05 00:07 43.59453 77.10889 37095 ft 491 kts 90°
2026-05-05 00:07 43.59309 77.20302 37093 ft 491 kts 92°
2026-05-05 00:08 43.58966 77.29731 37093 ft 492 kts 92°
2026-05-05 00:08 43.58612 77.39153 37086 ft 492 kts 92°
2026-05-05 00:09 43.58280 77.48651 37083 ft 492 kts 92°
2026-05-05 00:09 43.58040 77.58081 37077 ft 492 kts 90°
2026-05-05 00:10 43.57958 77.67523 37076 ft 493 kts 90°
2026-05-05 00:10 43.57858 77.76972 37073 ft 493 kts 91°
2026-05-05 00:11 43.57723 77.86419 37076 ft 493 kts 91°
2026-05-05 00:11 43.57574 77.95884 37071 ft 493 kts 91°
2026-05-05 00:12 43.57422 78.05340 37070 ft 494 kts 91°
2026-05-05 00:12 43.57263 78.14817 37068 ft 494 kts 91°
2026-05-05 00:13 43.57101 78.24288 37066 ft 495 kts 91°
2026-05-05 00:13 43.56932 78.33780 37066 ft 495 kts 91°
2026-05-05 00:14 43.56755 78.43275 37066 ft 495 kts 91°
2026-05-05 00:14 43.56569 78.52771 37070 ft 496 kts 91°
2026-05-05 00:15 43.56375 78.62273 37065 ft 496 kts 91°
2026-05-05 00:15 43.56173 78.71787 37070 ft 497 kts 91°
2026-05-05 00:16 43.55963 78.81313 37070 ft 497 kts 91°
2026-05-05 00:16 43.55746 78.90832 37074 ft 497 kts 91°
2026-05-05 00:17 43.55520 79.00368 37075 ft 497 kts 91°
2026-05-05 00:17 43.55286 79.09905 37056 ft 497 kts 91°
2026-05-05 00:18 43.55045 79.19433 37069 ft 497 kts 91°
2026-05-05 00:18 43.54795 79.28969 37065 ft 498 kts 92°
2026-05-05 00:19 43.54536 79.38500 37067 ft 498 kts 92°
2026-05-05 00:19 43.54269 79.48038 37070 ft 498 kts 92°
2026-05-05 00:20 43.53996 79.57581 37075 ft 499 kts 92°
2026-05-05 00:20 43.53714 79.67134 37074 ft 499 kts 92°
2026-05-05 00:21 43.53425 79.76688 37076 ft 499 kts 92°
2026-05-05 00:21 43.53127 79.86196 37077 ft 500 kts 92°
2026-05-05 00:22 43.52812 79.95816 37084 ft 500 kts 92°
2026-05-05 00:22 43.52491 80.05395 37085 ft 500 kts 92°
2026-05-05 00:23 43.52164 80.14964 37086 ft 500 kts 92°
2026-05-05 00:23 43.51829 80.24538 37088 ft 500 kts 92°
2026-05-05 00:24 43.51487 80.34110 37093 ft 500 kts 92°
2026-05-05 00:24 43.51135 80.43693 37103 ft 501 kts 92°
2026-05-05 00:25 43.50776 80.53266 37103 ft 501 kts 93°
2026-05-05 00:25 43.50409 80.62846 37104 ft 501 kts 93°
2026-05-05 00:26 43.50099 80.70818 37108 ft 501 kts 93°
2026-05-05 00:26 43.49784 80.81978 37110 ft 502 kts 91°
2026-05-05 00:27 43.49694 80.90036 37111 ft 502 kts 90°
2026-05-05 00:27 43.49584 80.99591 37106 ft 502 kts 91°
2026-05-05 00:28 43.49438 81.09212 37119 ft 503 kts 91°
2026-05-05 00:28 43.49267 81.18836 37117 ft 503 kts 91°
2026-05-05 00:29 43.49085 81.28471 37110 ft 503 kts 91°
2026-05-05 00:29 43.48897 81.38108 37107 ft 503 kts 91°
2026-05-05 00:30 43.48702 81.47735 37110 ft 503 kts 91°
2026-05-05 00:30 43.48499 81.57367 37119 ft 503 kts 92°
2026-05-05 00:31 43.48288 81.66992 37104 ft 503 kts 92°
2026-05-05 00:31 43.48069 81.76619 37113 ft 502 kts 92°
2026-05-05 00:32 43.47842 81.86230 37110 ft 502 kts 92°
2026-05-05 00:32 43.47609 81.95768 37105 ft 501 kts 92°
2026-05-05 00:33 43.47367 82.05358 37103 ft 501 kts 92°
2026-05-05 00:33 43.47115 82.15010 37105 ft 501 kts 92°
2026-05-05 00:34 43.46858 82.24537 37104 ft 501 kts 92°
2026-05-05 00:34 43.46592 82.34130 37101 ft 502 kts 92°
2026-05-05 00:35 43.46316 82.43752 37104 ft 503 kts 92°
2026-05-05 00:35 43.46032 82.53382 37100 ft 504 kts 93°
2026-05-05 00:36 43.45741 82.63017 37103 ft 504 kts 93°
2026-05-05 00:36 43.45440 82.72667 37106 ft 505 kts 93°
2026-05-05 00:37 43.45131 82.82338 37109 ft 506 kts 93°
2026-05-05 00:37 43.44813 82.92015 37108 ft 507 kts 93°
2026-05-05 00:38 43.44487 83.01705 37112 ft 507 kts 93°
2026-05-05 00:38 43.44152 83.11405 37113 ft 508 kts 93°
2026-05-05 00:39 43.43811 83.21056 37130 ft 508 kts 93°
2026-05-05 00:39 43.43457 83.30858 37096 ft 510 kts 93°
2026-05-05 00:40 43.43024 83.40507 37114 ft 509 kts 96°
2026-05-05 00:40 43.42224 83.50242 37115 ft 508 kts 98°
2026-05-05 00:41 43.41365 83.59881 37126 ft 507 kts 97°
2026-05-05 00:41 43.40530 83.69460 37113 ft 509 kts 97°
2026-05-05 00:42 43.39701 83.79104 37124 ft 507 kts 98°
2026-05-05 00:42 43.38868 83.88726 37123 ft 506 kts 98°
2026-05-05 00:43 43.38026 83.98340 37121 ft 506 kts 98°
2026-05-05 00:43 43.37177 84.07933 37124 ft 506 kts 98°
2026-05-05 00:44 43.36319 84.17530 37118 ft 506 kts 98°
2026-05-05 00:44 43.35452 84.27133 37131 ft 506 kts 98°
2026-05-05 00:45 43.34580 84.36729 37119 ft 506 kts 98°
2026-05-05 00:45 43.33683 84.46273 37124 ft 507 kts 99°
2026-05-05 00:46 43.32756 84.55934 37122 ft 507 kts 99°
2026-05-05 00:46 43.31827 84.65550 37116 ft 508 kts 99°
2026-05-05 00:47 43.30898 84.75109 37111 ft 509 kts 99°
2026-05-05 00:47 43.29953 84.84752 37105 ft 509 kts 99°
2026-05-05 00:48 43.29002 84.94386 37093 ft 510 kts 99°
2026-05-05 00:48 43.28043 85.04017 37086 ft 509 kts 99°
2026-05-05 00:49 43.27075 85.13644 37095 ft 509 kts 99°
2026-05-05 00:49 43.26099 85.23267 37090 ft 509 kts 99°
2026-05-05 00:50 43.25116 85.32879 37089 ft 509 kts 99°
2026-05-05 00:50 43.24122 85.42497 37098 ft 510 kts 99°
2026-05-05 00:51 43.23119 85.52134 37092 ft 511 kts 99°
2026-05-05 00:51 43.22105 85.61788 37112 ft 513 kts 99°
2026-05-05 00:52 43.21085 85.71466 37098 ft 512 kts 100°
2026-05-05 00:52 43.20055 85.81138 37089 ft 513 kts 100°
2026-05-05 00:53 43.19064 85.90778 37072 ft 510 kts 95°
2026-05-05 00:53 43.19195 85.95632 37103 ft 511 kts 81°
2026-05-05 00:53 43.20070 86.00335 37101 ft 511 kts 69°
2026-05-05 00:53 43.21606 86.04711 37102 ft 509 kts 55°
2026-05-05 00:54 43.23606 86.08700 37119 ft 506 kts 52°
2026-05-05 00:54 43.27684 86.16622 37098 ft 511 kts 54°
2026-05-05 00:55 43.31646 86.24785 37120 ft 515 kts 54°
2026-05-05 00:55 43.35608 86.32987 37126 ft 515 kts 54°
2026-05-05 00:56 43.39548 86.41136 37135 ft 511 kts 54°
2026-05-05 00:56 43.43486 86.49286 37092 ft 511 kts 54°
2026-05-05 00:57 43.47419 86.57374 37103 ft 512 kts 53°
2026-05-05 00:57 43.51377 86.65540 37134 ft 513 kts 54°
2026-05-05 00:58 43.55333 86.73741 37099 ft 514 kts 54°
2026-05-05 00:58 43.59261 86.81996 37112 ft 516 kts 54°
2026-05-05 00:59 43.63184 86.90290 37114 ft 516 kts 54°
2026-05-05 00:59 43.67108 86.98590 37108 ft 516 kts 54°
2026-05-05 01:00 43.71023 87.06892 37080 ft 516 kts 54°
2026-05-05 01:00 43.74932 87.15208 37060 ft 515 kts 55°
2026-05-05 01:01 43.78818 87.23539 37057 ft 515 kts 55°
2026-05-05 01:01 43.82695 87.31885 37062 ft 515 kts 55°
2026-05-05 01:02 43.86567 87.40239 37047 ft 516 kts 55°
2026-05-05 01:02 43.90438 87.48611 37052 ft 516 kts 55°
2026-05-05 01:03 43.94584 87.56701 37051 ft 514 kts 50°
2026-05-05 01:03 43.98945 87.64555 37055 ft 514 kts 50°
2026-05-05 01:04 44.03295 87.72450 37049 ft 515 kts 50°
2026-05-05 01:04 44.09748 87.84334 37046 ft 516 kts 50°
2026-05-05 01:05 44.14053 87.92322 37042 ft 517 kts 53°
2026-05-05 01:05 44.17424 88.01198 37046 ft 521 kts 68°
2026-05-05 01:06 44.19360 88.10918 37045 ft 522 kts 78°
2026-05-05 01:06 44.20759 88.20845 37041 ft 523 kts 79°
2026-05-05 01:07 44.22164 88.30796 37035 ft 523 kts 78°
2026-05-05 01:07 44.23618 88.40748 37028 ft 524 kts 78°
2026-05-05 01:08 44.25086 88.50697 37024 ft 524 kts 78°
2026-05-05 01:08 44.26548 88.60671 37019 ft 525 kts 78°
2026-05-05 01:09 44.27997 88.70654 37012 ft 525 kts 78°
2026-05-05 01:09 44.29436 88.80641 37008 ft 525 kts 78°
2026-05-05 01:10 44.30867 88.90637 36999 ft 525 kts 78°
2026-05-05 01:10 44.32290 89.00646 36995 ft 526 kts 78°
2026-05-05 01:11 44.33705 89.10659 36983 ft 526 kts 78°
2026-05-05 01:11 44.35113 89.20688 36986 ft 526 kts 78°
2026-05-05 01:12 44.36512 89.30726 36981 ft 526 kts 78°
2026-05-05 01:12 44.37902 89.40769 36981 ft 526 kts 78°
2026-05-05 01:13 44.39285 89.50822 36976 ft 527 kts 79°
2026-05-05 01:13 44.40654 89.60883 36965 ft 527 kts 80°
2026-05-05 01:14 44.40907 89.71009 36979 ft 525 kts 97°
2026-05-05 01:14 44.39782 89.79360 36957 ft 521 kts 109°
2026-05-05 01:15 44.37615 89.89017 36953 ft 521 kts 111°
2026-05-05 01:15 44.35420 89.98659 36977 ft 521 kts 110°
2026-05-05 01:16 44.33269 90.08350 36966 ft 522 kts 110°
2026-05-05 01:16 44.31142 90.18039 36965 ft 522 kts 110°
2026-05-05 01:17 44.29006 90.27732 36969 ft 522 kts 110°
2026-05-05 01:17 44.26857 90.37419 36968 ft 523 kts 110°
2026-05-05 01:18 44.24709 90.47046 36966 ft 523 kts 110°
2026-05-05 01:18 44.22538 90.56729 36968 ft 523 kts 110°
2026-05-05 01:19 44.20358 90.66414 36965 ft 524 kts 110°
2026-05-05 01:19 44.18170 90.76094 36960 ft 524 kts 110°
2026-05-05 01:20 44.15968 90.85792 36963 ft 525 kts 110°
2026-05-05 01:20 44.13758 90.95482 36962 ft 525 kts 110°
2026-05-05 01:21 44.11539 91.05172 36964 ft 526 kts 110°
2026-05-05 01:21 44.09319 91.14867 36962 ft 526 kts 110°
2026-05-05 01:22 44.07091 91.24580 36957 ft 527 kts 110°
2026-05-05 01:22 44.04853 91.34293 36960 ft 527 kts 110°
2026-05-05 01:23 44.02606 91.43995 36966 ft 528 kts 111°
2026-05-05 01:23 44.00334 91.53636 36961 ft 528 kts 111°
2026-05-05 01:24 43.98026 91.63334 36964 ft 529 kts 111°
2026-05-05 01:24 43.95713 91.73037 36951 ft 530 kts 111°
2026-05-05 01:25 43.93393 91.82741 36959 ft 530 kts 111°
2026-05-05 01:25 43.91064 91.92445 36961 ft 531 kts 111°
2026-05-05 01:26 43.88722 92.02160 36959 ft 531 kts 111°
2026-05-05 01:26 43.86372 92.11864 36947 ft 531 kts 111°
2026-05-05 01:27 43.84012 92.21570 36953 ft 531 kts 111°
2026-05-05 01:27 43.81646 92.31259 36945 ft 532 kts 111°
2026-05-05 01:28 43.79267 92.40958 36943 ft 532 kts 111°
2026-05-05 01:28 43.76884 92.50636 36938 ft 532 kts 111°
2026-05-05 01:29 43.74488 92.60325 36932 ft 532 kts 111°
2026-05-05 01:29 43.72082 92.70010 36934 ft 533 kts 111°
2026-05-05 01:30 43.69667 92.79695 36935 ft 533 kts 111°
2026-05-05 01:30 43.67240 92.89388 36929 ft 534 kts 112°
2026-05-05 01:31 43.64804 92.99082 36925 ft 535 kts 111°
2026-05-05 01:31 43.62437 93.08821 36936 ft 535 kts 111°
2026-05-05 01:32 43.60121 93.18591 36935 ft 536 kts 110°
2026-05-05 01:32 43.57793 93.28350 36934 ft 535 kts 111°
2026-05-05 01:33 43.55459 93.38029 36930 ft 535 kts 111°
2026-05-05 01:33 43.53097 93.47757 36939 ft 535 kts 111°
2026-05-05 01:34 43.50726 93.57482 36930 ft 536 kts 111°
2026-05-05 01:34 43.48347 93.67198 36939 ft 536 kts 111°
2026-05-05 01:35 43.45955 93.76935 36933 ft 537 kts 111°
2026-05-05 01:35 43.43554 93.86662 36934 ft 538 kts 111°
2026-05-05 01:36 43.41139 93.96407 36919 ft 538 kts 112°
2026-05-05 01:36 43.38719 94.06135 36944 ft 538 kts 112°
2026-05-05 01:37 43.36284 94.15874 36930 ft 539 kts 112°
2026-05-05 01:37 43.33837 94.25624 36917 ft 540 kts 112°
2026-05-05 01:38 43.31381 94.35369 36921 ft 540 kts 112°
2026-05-05 01:38 43.28912 94.45128 36923 ft 542 kts 112°
2026-05-05 01:39 43.26428 94.54900 36905 ft 542 kts 112°
2026-05-05 01:39 43.23936 94.64667 36891 ft 543 kts 112°
2026-05-05 01:40 43.21436 94.74424 36884 ft 543 kts 112°
2026-05-05 01:40 43.18924 94.84190 36859 ft 544 kts 112°
2026-05-05 01:41 43.16401 94.93961 36848 ft 544 kts 112°
2026-05-05 01:41 43.13662 95.03588 36828 ft 538 kts 123°
2026-05-05 01:42 43.11661 95.07772 36840 ft 529 kts 135°
2026-05-05 01:42 43.09223 95.11501 36851 ft 525 kts 143°
2026-05-05 01:42 43.06394 95.14687 36817 ft 516 kts 154°
2026-05-05 01:42 43.03449 95.17377 36835 ft 517 kts 155°
2026-05-05 01:43 42.97413 95.22795 36824 ft 521 kts 155°
2026-05-05 01:43 42.91380 95.28307 36805 ft 522 kts 154°
2026-05-05 01:44 42.85385 95.33863 36801 ft 521 kts 154°
2026-05-05 01:44 42.79402 95.39409 36795 ft 519 kts 154°
2026-05-05 01:45 42.73441 95.44912 36793 ft 517 kts 155°
2026-05-05 01:45 42.67498 95.50378 36793 ft 516 kts 155°
2026-05-05 01:46 42.61558 95.55827 36797 ft 515 kts 155°
2026-05-05 01:46 42.55610 95.61271 36794 ft 516 kts 155°
2026-05-05 01:47 42.49657 95.66709 36800 ft 516 kts 155°
2026-05-05 01:47 42.43691 95.72149 36809 ft 517 kts 155°
2026-05-05 01:48 42.37718 95.77585 36816 ft 518 kts 154°
2026-05-05 01:48 42.31761 95.83093 36826 ft 519 kts 154°
2026-05-05 01:49 42.25810 95.88631 36838 ft 519 kts 154°
2026-05-05 01:49 42.19852 95.94151 36844 ft 520 kts 154°
2026-05-05 01:50 42.13884 95.99654 36857 ft 519 kts 154°
2026-05-05 01:50 42.07913 96.05146 36860 ft 519 kts 154°
2026-05-05 01:51 42.01988 96.10585 36871 ft 519 kts 154°
2026-05-05 01:51 41.95984 96.16087 36858 ft 519 kts 154°
2026-05-05 01:52 41.90366 96.22215 36861 ft 535 kts 133°
2026-05-05 01:52 41.88457 96.26556 36864 ft 547 kts 115°
2026-05-05 01:52 41.87413 96.31473 36875 ft 552 kts 98°
2026-05-05 01:53 41.87347 96.36612 36870 ft 549 kts 84°
2026-05-05 01:53 41.87640 96.41716 36877 ft 550 kts 83°
2026-05-05 01:53 41.88265 96.51975 36869 ft 553 kts 84°
2026-05-05 01:54 41.88786 96.62215 36857 ft 555 kts 85°
2026-05-05 01:54 41.89225 96.72570 36853 ft 556 kts 85°
2026-05-05 01:55 41.89634 96.82933 36850 ft 556 kts 85°
2026-05-05 01:55 41.90041 96.93294 36842 ft 556 kts 85°
2026-05-05 01:56 41.90446 97.03652 36828 ft 555 kts 85°
2026-05-05 01:56 41.90843 97.13998 36832 ft 554 kts 85°
2026-05-05 01:57 41.91231 97.24331 36820 ft 554 kts 85°
2026-05-05 01:57 41.91608 97.34658 36801 ft 554 kts 85°
2026-05-05 01:58 41.91975 97.44981 36803 ft 553 kts 86°
2026-05-05 01:58 41.92334 97.55311 36785 ft 553 kts 86°
2026-05-05 01:59 41.92682 97.65630 36788 ft 554 kts 86°
2026-05-05 01:59 41.93022 97.75957 36772 ft 554 kts 86°
2026-05-05 02:00 41.93354 97.86298 36767 ft 554 kts 86°
2026-05-05 02:00 41.93673 97.96581 36769 ft 555 kts 86°
2026-05-05 02:01 41.93936 98.05252 36774 ft 555 kts 86°
2026-05-05 02:01 41.94290 98.17289 36750 ft 555 kts 86°
2026-05-05 02:02 41.94584 98.27646 36754 ft 555 kts 86°
2026-05-05 02:02 41.94824 98.36326 36739 ft 555 kts 86°
2026-05-05 02:03 41.95101 98.46680 36740 ft 554 kts 86°
2026-05-05 02:03 41.95369 98.57032 36722 ft 555 kts 86°
2026-05-05 02:04 41.95627 98.67388 36717 ft 554 kts 86°
2026-05-05 02:04 41.95875 98.77667 36712 ft 555 kts 86°
2026-05-05 02:05 41.96114 98.88026 36709 ft 555 kts 86°
2026-05-05 02:05 41.96345 98.98389 36706 ft 555 kts 86°
2026-05-05 02:06 41.96567 99.08771 36697 ft 556 kts 86°
2026-05-05 02:06 41.96780 99.19148 36696 ft 556 kts 86°
2026-05-05 02:07 41.96983 99.29554 36684 ft 557 kts 86°
2026-05-05 02:07 41.97177 99.39968 36671 ft 557 kts 86°
2026-05-05 02:08 41.97362 99.50372 36676 ft 558 kts 86°
2026-05-05 02:08 41.97538 99.60799 36673 ft 558 kts 86°
2026-05-05 02:09 41.97704 99.71211 36662 ft 558 kts 86°
2026-05-05 02:09 41.97860 99.81629 36656 ft 557 kts 86°
2026-05-05 02:10 41.98008 99.92049 36659 ft 557 kts 86°
2026-05-05 02:10 41.98145 100.02461 36655 ft 557 kts 86°
2026-05-05 02:11 41.98273 100.12853 36651 ft 556 kts 86°
2026-05-05 02:11 41.98392 100.23239 36653 ft 556 kts 86°
2026-05-05 02:12 41.98552 100.38807 36653 ft 555 kts 86°
2026-05-05 02:13 41.98648 100.49177 36646 ft 555 kts 86°
2026-05-05 02:13 41.98733 100.59471 36644 ft 554 kts 87°
2026-05-05 02:14 41.98809 100.69836 36640 ft 554 kts 86°
2026-05-05 02:14 41.98877 100.80188 36642 ft 554 kts 86°
2026-05-05 02:15 41.98936 100.90616 36644 ft 554 kts 87°
2026-05-05 02:15 41.98752 101.00969 36632 ft 556 kts 95°
2026-05-05 02:16 41.97316 101.11186 36632 ft 557 kts 105°
2026-05-05 02:16 41.94798 101.20936 36646 ft 556 kts 112°
2026-05-05 02:17 41.92058 101.30640 36631 ft 556 kts 111°
2026-05-05 02:17 41.89349 101.40358 36634 ft 556 kts 111°
2026-05-05 02:18 41.86673 101.50092 36631 ft 556 kts 111°
2026-05-05 02:18 41.84003 101.59813 36637 ft 555 kts 111°
2026-05-05 02:19 41.81322 101.69524 36630 ft 555 kts 111°
2026-05-05 02:19 41.78632 101.79210 36637 ft 555 kts 111°
2026-05-05 02:20 41.75931 101.88897 36634 ft 555 kts 111°
2026-05-05 02:20 41.73225 101.98567 36636 ft 554 kts 111°
2026-05-05 02:21 41.70515 102.08214 36635 ft 554 kts 111°
2026-05-05 02:21 41.67795 102.17859 36635 ft 554 kts 111°
2026-05-05 02:22 41.65071 102.27484 36637 ft 553 kts 111°
2026-05-05 02:22 41.62341 102.37092 36635 ft 553 kts 111°
2026-05-05 02:23 41.59621 102.46628 36633 ft 553 kts 111°
2026-05-05 02:23 41.56873 102.56229 36634 ft 552 kts 111°
2026-05-05 02:24 41.54124 102.65803 36631 ft 552 kts 111°
2026-05-05 02:24 41.51396 102.75369 36629 ft 552 kts 110°
2026-05-05 02:25 41.48778 102.84990 36627 ft 551 kts 108°
2026-05-05 02:25 41.46366 102.94693 36632 ft 551 kts 108°
2026-05-05 02:26 41.43870 103.04348 36629 ft 551 kts 110°
2026-05-05 02:26 41.41197 103.13904 36633 ft 551 kts 110°
2026-05-05 02:27 41.38490 103.23455 36629 ft 550 kts 110°
2026-05-05 02:27 41.35808 103.32996 36625 ft 550 kts 110°
2026-05-05 02:28 41.33136 103.42534 36627 ft 550 kts 110°
2026-05-05 02:28 41.30458 103.52064 36626 ft 550 kts 110°
2026-05-05 02:29 41.27768 103.61589 36627 ft 550 kts 110°
2026-05-05 02:29 41.25074 103.71088 36624 ft 550 kts 110°
2026-05-05 02:30 41.22372 103.80580 36626 ft 549 kts 110°
2026-05-05 02:30 41.19675 103.90018 36627 ft 549 kts 110°
2026-05-05 02:31 41.16962 103.99481 36628 ft 548 kts 110°
2026-05-05 02:31 41.14243 104.08928 36623 ft 547 kts 110°
2026-05-05 02:32 41.11522 104.18348 36631 ft 546 kts 110°
2026-05-05 02:32 41.08798 104.27744 36631 ft 546 kts 110°
2026-05-05 02:33 41.06066 104.37137 36631 ft 546 kts 110°
2026-05-05 02:33 41.03331 104.46510 36636 ft 545 kts 110°
2026-05-05 02:34 41.00660 104.55903 36637 ft 544 kts 109°
2026-05-05 02:34 40.98067 104.65314 36634 ft 544 kts 109°
2026-05-05 02:35 40.95472 104.74705 36639 ft 543 kts 109°
2026-05-05 02:35 40.92856 104.84070 36639 ft 543 kts 109°
2026-05-05 02:36 40.90220 104.93441 36661 ft 542 kts 109°
2026-05-05 02:36 40.87583 105.02779 36639 ft 542 kts 109°
2026-05-05 02:37 40.84946 105.12089 36642 ft 541 kts 110°
2026-05-05 02:37 40.82301 105.21396 36650 ft 541 kts 110°
2026-05-05 02:38 40.79653 105.30680 36652 ft 540 kts 110°
2026-05-05 02:38 40.77000 105.39951 36660 ft 540 kts 110°
2026-05-05 02:39 40.74360 105.49140 36655 ft 539 kts 110°
2026-05-05 02:39 40.71693 105.58389 36656 ft 539 kts 110°
2026-05-05 02:40 40.69024 105.67615 36654 ft 539 kts 110°
2026-05-05 02:40 40.66347 105.76832 36659 ft 538 kts 110°
2026-05-05 02:41 40.63663 105.86042 36668 ft 538 kts 110°
2026-05-05 02:41 40.60978 105.95224 36667 ft 537 kts 110°
2026-05-05 02:42 40.58290 106.04385 36664 ft 537 kts 110°
2026-05-05 02:42 40.55596 106.13535 36669 ft 536 kts 110°
2026-05-05 02:43 40.52902 106.22653 36686 ft 535 kts 110°
2026-05-05 02:43 40.50201 106.31762 36665 ft 534 kts 110°
2026-05-05 02:44 40.47498 106.40843 36673 ft 534 kts 110°
2026-05-05 02:44 40.44790 106.49914 36681 ft 533 kts 110°
2026-05-05 02:45 40.42074 106.58985 36663 ft 533 kts 110°
2026-05-05 02:45 40.39372 106.67974 36663 ft 533 kts 110°
2026-05-05 02:46 40.36649 106.77005 36668 ft 533 kts 110°
2026-05-05 02:46 40.33916 106.86040 36659 ft 533 kts 111°
2026-05-05 02:47 40.31830 106.95308 36659 ft 528 kts 95°
2026-05-05 02:47 40.31702 107.04818 36644 ft 519 kts 77°
2026-05-05 02:48 40.32910 107.14110 36656 ft 517 kts 75°
2026-05-05 02:48 40.34172 107.23413 36655 ft 518 kts 75°
2026-05-05 02:49 40.35162 107.31158 36650 ft 519 kts 76°
2026-05-05 02:49 40.36311 107.40510 36649 ft 519 kts 76°
2026-05-05 02:50 40.37446 107.49855 36649 ft 519 kts 76°
2026-05-05 02:50 40.38579 107.59208 36651 ft 519 kts 76°
2026-05-05 02:51 40.39706 107.68554 36655 ft 519 kts 76°
2026-05-05 02:51 40.40825 107.77894 36657 ft 518 kts 77°
2026-05-05 02:52 40.41935 107.87233 36652 ft 518 kts 77°
2026-05-05 02:52 40.43037 107.96557 36658 ft 517 kts 77°
2026-05-05 02:53 40.44124 108.05890 36651 ft 516 kts 77°
2026-05-05 02:53 40.45194 108.15203 36665 ft 515 kts 77°
2026-05-05 02:54 40.46254 108.24502 36659 ft 515 kts 77°
2026-05-05 02:54 40.47309 108.33802 36659 ft 514 kts 77°
2026-05-05 02:55 40.48354 108.43085 36665 ft 514 kts 77°
2026-05-05 02:55 40.49386 108.52314 36668 ft 513 kts 77°
2026-05-05 02:56 40.50416 108.61590 36668 ft 513 kts 77°
2026-05-05 02:56 40.51445 108.70931 36675 ft 513 kts 77°
2026-05-05 02:57 40.52453 108.80163 36679 ft 513 kts 77°
2026-05-05 02:57 40.53460 108.89447 36681 ft 513 kts 77°
2026-05-05 02:58 40.54461 108.98743 36684 ft 513 kts 77°
2026-05-05 02:58 40.55453 109.08036 36684 ft 513 kts 77°
2026-05-05 02:59 40.56438 109.17329 36692 ft 513 kts 77°
2026-05-05 02:59 40.57416 109.26634 36695 ft 513 kts 77°
2026-05-05 03:00 40.58384 109.35918 36697 ft 512 kts 77°
2026-05-05 03:00 40.59346 109.45212 36701 ft 512 kts 77°
2026-05-05 03:01 40.60292 109.54437 36706 ft 512 kts 77°
2026-05-05 03:01 40.61237 109.63713 36711 ft 512 kts 77°
2026-05-05 03:02 40.62174 109.72995 36716 ft 511 kts 78°
2026-05-05 03:02 40.63103 109.82278 36719 ft 511 kts 78°
2026-05-05 03:03 40.64025 109.91542 36725 ft 510 kts 78°
2026-05-05 03:03 40.64766 110.00857 36730 ft 514 kts 84°
2026-05-05 03:04 40.64722 110.10279 36742 ft 515 kts 87°
2026-05-05 03:04 40.64597 110.19709 36734 ft 515 kts 86°
2026-05-05 03:05 40.64520 110.29136 36748 ft 514 kts 86°
2026-05-05 03:05 40.64459 110.38548 36758 ft 514 kts 86°
2026-05-05 03:06 40.64387 110.47957 36755 ft 513 kts 86°
2026-05-05 03:06 40.64304 110.57346 36760 ft 512 kts 86°
2026-05-05 03:07 40.64214 110.66720 36756 ft 512 kts 86°
2026-05-05 03:07 40.64120 110.76071 36743 ft 511 kts 86°
2026-05-05 03:08 40.64019 110.85341 36749 ft 510 kts 86°
2026-05-05 03:08 40.63909 110.94732 36776 ft 510 kts 86°
2026-05-05 03:09 40.63793 111.03993 36776 ft 510 kts 86°
2026-05-05 03:09 40.63670 111.13325 36775 ft 510 kts 86°
2026-05-05 03:10 40.63538 111.22658 36782 ft 510 kts 86°
2026-05-05 03:10 40.63400 111.31980 36783 ft 510 kts 86°
2026-05-05 03:11 40.63255 111.41319 36782 ft 510 kts 86°
2026-05-05 03:11 40.63103 111.50640 36778 ft 509 kts 86°
2026-05-05 03:12 40.62944 111.59953 36782 ft 509 kts 86°
2026-05-05 03:12 40.62777 111.69266 36789 ft 508 kts 86°
2026-05-05 03:13 40.62604 111.78558 36805 ft 508 kts 86°
2026-05-05 03:13 40.62424 111.87847 36796 ft 507 kts 86°
2026-05-05 03:14 40.62321 111.97113 36811 ft 507 kts 86°
2026-05-05 03:14 40.62049 112.06392 36792 ft 508 kts 87°
2026-05-05 03:15 40.61816 112.15623 36791 ft 508 kts 86°
2026-05-05 03:15 40.61614 112.24914 36794 ft 508 kts 86°
2026-05-05 03:16 40.61392 112.34202 36776 ft 508 kts 87°
2026-05-05 03:16 40.61159 112.43544 36795 ft 507 kts 87°
2026-05-05 03:17 40.60927 112.52822 36777 ft 509 kts 88°
2026-05-05 03:17 40.60383 112.62068 36774 ft 511 kts 90°
2026-05-05 03:18 40.59794 112.71377 36765 ft 510 kts 90°
2026-05-05 03:18 40.59117 112.80690 36765 ft 512 kts 92°
2026-05-05 03:19 40.58099 112.94650 36760 ft 511 kts 90°
2026-05-05 03:19 40.57510 113.03961 36756 ft 511 kts 90°
2026-05-05 03:20 40.56895 113.13265 36749 ft 511 kts 91°
2026-05-05 03:20 40.56257 113.22565 36756 ft 510 kts 91°
2026-05-05 03:21 40.55608 113.31858 36749 ft 510 kts 91°
2026-05-05 03:21 40.54954 113.41143 36746 ft 510 kts 91°
2026-05-05 03:22 40.54294 113.50423 36749 ft 510 kts 92°
2026-05-05 03:22 40.53626 113.59704 36746 ft 510 kts 92°
2026-05-05 03:23 40.52956 113.68914 36746 ft 509 kts 92°
2026-05-05 03:23 40.52274 113.78176 36737 ft 509 kts 92°
2026-05-05 03:24 40.51586 113.87426 36744 ft 508 kts 92°
2026-05-05 03:24 40.50892 113.96668 36728 ft 509 kts 92°
2026-05-05 03:25 40.50302 114.05926 36721 ft 507 kts 90°
2026-05-05 03:25 40.49957 114.15172 36732 ft 507 kts 89°
2026-05-05 03:26 40.49616 114.24408 36723 ft 507 kts 90°
2026-05-05 03:26 40.49226 114.33679 36723 ft 508 kts 90°
2026-05-05 03:27 40.48808 114.42961 36719 ft 508 kts 90°
2026-05-05 03:27 40.48382 114.52226 36721 ft 508 kts 91°
2026-05-05 03:28 40.47951 114.61481 36724 ft 508 kts 91°
2026-05-05 03:28 40.47514 114.70745 36726 ft 508 kts 91°
2026-05-05 03:29 40.47069 114.80018 36708 ft 508 kts 91°
2026-05-05 03:29 40.46617 114.89271 36728 ft 507 kts 91°
2026-05-05 03:30 40.46161 114.98456 36712 ft 507 kts 91°
2026-05-05 03:30 40.45693 115.07740 36725 ft 506 kts 91°
2026-05-05 03:31 40.45224 115.16891 36693 ft 505 kts 92°
2026-05-05 03:31 40.44747 115.26066 36731 ft 503 kts 92°
2026-05-05 03:32 40.44264 115.35227 36730 ft 503 kts 92°
2026-05-05 03:32 40.43773 115.44385 36738 ft 502 kts 92°
2026-05-05 03:33 40.43276 115.53533 36730 ft 503 kts 92°
2026-05-05 03:33 40.42608 115.62673 36749 ft 503 kts 95°
2026-05-05 03:34 40.41828 115.71805 36760 ft 503 kts 95°
2026-05-05 03:34 40.41056 115.80937 36751 ft 504 kts 95°
2026-05-05 03:35 40.40301 115.90086 36761 ft 504 kts 95°
2026-05-05 03:35 40.39545 115.99236 36768 ft 505 kts 95°
2026-05-05 03:36 40.38911 116.06840 36766 ft 505 kts 95°
2026-05-05 03:36 40.38139 116.15980 36770 ft 504 kts 95°
2026-05-05 03:37 40.37361 116.25105 36779 ft 504 kts 95°
2026-05-05 03:37 40.36450 116.35710 36784 ft 502 kts 95°
2026-05-05 03:38 40.35788 116.43320 36779 ft 502 kts 95°
2026-05-05 03:38 40.34992 116.52401 36784 ft 501 kts 95°
2026-05-05 03:39 40.34194 116.61456 36785 ft 500 kts 95°
2026-05-05 03:39 40.33487 116.65900 36763 ft 499 kts 110°
2026-05-05 03:39 40.31869 116.69902 36780 ft 498 kts 128°
2026-05-05 03:40 40.29461 116.73130 36789 ft 495 kts 145°
2026-05-05 03:40 40.26559 116.75517 36781 ft 492 kts 157°
2026-05-05 03:40 40.23353 116.76988 36764 ft 485 kts 173°
2026-05-05 03:40 40.20040 116.77640 36790 ft 483 kts 176°
2026-05-05 03:41 40.13334 116.78797 36778 ft 487 kts 175°
2026-05-05 03:41 40.06601 116.80059 36774 ft 491 kts 175°
2026-05-05 03:42 39.99836 116.81412 36773 ft 492 kts 174°
2026-05-05 03:42 39.93103 116.82768 36775 ft 492 kts 174°
2026-05-05 03:43 39.86297 116.84127 36774 ft 491 kts 174°
2026-05-05 03:43 39.79584 116.85462 36775 ft 490 kts 174°
2026-05-05 03:44 39.72851 116.86844 36769 ft 490 kts 174°
2026-05-05 03:44 39.66133 116.88249 36780 ft 489 kts 174°
2026-05-05 03:45 39.59442 116.89640 36772 ft 488 kts 174°
2026-05-05 03:45 39.52711 116.91031 36773 ft 488 kts 174°
2026-05-05 03:46 39.46002 116.92414 36775 ft 488 kts 174°
2026-05-05 03:46 39.39290 116.93794 36777 ft 488 kts 174°
2026-05-05 03:47 39.32573 116.95174 36779 ft 489 kts 173°
2026-05-05 03:47 39.25857 116.96551 36786 ft 489 kts 173°
2026-05-05 03:48 39.19179 116.98213 36769 ft 491 kts 161°
2026-05-05 03:48 39.16182 117.00315 36789 ft 494 kts 143°
2026-05-05 03:48 39.13765 117.03461 36794 ft 496 kts 126°
2026-05-05 03:49 39.12014 117.07286 36798 ft 496 kts 112°
2026-05-05 03:49 39.11064 117.11519 36791 ft 491 kts 97°
2026-05-05 03:49 39.10096 117.20241 36805 ft 494 kts 96°
2026-05-05 03:50 39.09028 117.28987 36807 ft 496 kts 98°
2026-05-05 03:50 39.07936 117.37765 36809 ft 496 kts 94°
2026-05-05 03:51 39.07698 117.46548 36810 ft 494 kts 88°
2026-05-05 03:51 39.07663 117.55386 36797 ft 493 kts 88°
2026-05-05 03:52 39.07582 117.64205 36794 ft 492 kts 89°
2026-05-05 03:52 39.07464 117.72997 36797 ft 491 kts 89°
2026-05-05 03:53 39.07335 117.81772 36804 ft 490 kts 89°
2026-05-05 03:53 39.07204 117.90535 36807 ft 489 kts 89°
2026-05-05 03:54 39.07068 117.99278 36820 ft 488 kts 89°
2026-05-05 03:54 39.06385 118.07982 36812 ft 491 kts 99°
2026-05-05 03:55 39.04973 118.16578 36816 ft 491 kts 100°
2026-05-05 03:55 39.03551 118.25167 36821 ft 491 kts 100°
2026-05-05 03:56 39.02169 118.33775 36841 ft 491 kts 99°
2026-05-05 03:56 39.00793 118.42392 36826 ft 492 kts 99°
2026-05-05 03:57 38.99407 118.51000 36828 ft 492 kts 100°
2026-05-05 03:57 38.98012 118.59625 36831 ft 492 kts 100°
2026-05-05 03:58 38.96616 118.68243 36835 ft 493 kts 100°
2026-05-05 03:58 38.95224 118.76798 36836 ft 493 kts 100°
2026-05-05 03:59 38.93814 118.85414 36845 ft 493 kts 100°
2026-05-05 03:59 38.92400 118.94020 36845 ft 493 kts 100°
2026-05-05 04:00 38.90980 119.02624 36829 ft 493 kts 100°
2026-05-05 04:00 38.89543 119.11227 36845 ft 492 kts 100°
2026-05-05 04:01 38.88098 119.19813 36853 ft 492 kts 100°
2026-05-05 04:01 38.86651 119.28387 36845 ft 492 kts 100°
2026-05-05 04:02 38.85200 119.36950 36853 ft 491 kts 101°
2026-05-05 04:02 38.83745 119.45501 36855 ft 491 kts 101°
2026-05-05 04:03 38.82283 119.54050 36858 ft 490 kts 101°
2026-05-05 04:03 38.80819 119.62568 36859 ft 490 kts 101°
2026-05-05 04:04 38.79347 119.71098 36865 ft 490 kts 101°
2026-05-05 04:04 38.77872 119.79613 36860 ft 489 kts 101°
2026-05-05 04:05 38.76435 119.88144 36871 ft 489 kts 100°
2026-05-05 04:05 38.75076 119.96674 36871 ft 489 kts 100°
2026-05-05 04:06 38.73641 120.05131 36877 ft 489 kts 101°
2026-05-05 04:06 38.72046 120.13570 36860 ft 488 kts 111°
2026-05-05 04:07 38.70372 120.17336 36883 ft 488 kts 129°
2026-05-05 04:07 38.67925 120.20342 36890 ft 488 kts 144°
2026-05-05 04:07 38.65002 120.22514 36878 ft 487 kts 159°
2026-05-05 04:07 38.61778 120.23771 36879 ft 479 kts 164°
2026-05-05 04:08 38.58762 120.25608 36882 ft 487 kts 144°
2026-05-05 04:08 38.56352 120.28677 36889 ft 494 kts 124°
2026-05-05 04:08 38.54854 120.32612 36895 ft 493 kts 104°
2026-05-05 04:08 38.54446 120.36923 36894 ft 489 kts 84°
2026-05-05 04:09 38.55146 120.41133 36902 ft 484 kts 67°
2026-05-05 04:09 38.56456 120.45075 36887 ft 482 kts 66°
2026-05-05 04:09 38.57231 120.49236 36883 ft 486 kts 86°
2026-05-05 04:09 38.56921 120.53534 36909 ft 489 kts 100°
2026-05-05 04:10 38.55332 120.62006 36900 ft 492 kts 103°
2026-05-05 04:10 38.53660 120.70478 36893 ft 492 kts 102°
2026-05-05 04:11 38.52190 120.79020 36902 ft 492 kts 101°
2026-05-05 04:11 38.50803 120.87563 36900 ft 491 kts 100°
2026-05-05 04:12 38.49411 120.96082 36907 ft 490 kts 101°
2026-05-05 04:12 38.48004 121.04577 36905 ft 489 kts 101°
2026-05-05 04:13 38.46591 121.13055 36912 ft 488 kts 101°
2026-05-05 04:13 38.45249 121.21538 36911 ft 488 kts 99°
2026-05-05 04:14 38.43935 121.30020 36919 ft 488 kts 101°
2026-05-05 04:14 38.42527 121.38482 36916 ft 488 kts 101°
2026-05-05 04:15 38.41124 121.46950 36929 ft 488 kts 101°
2026-05-05 04:15 38.39719 121.55417 36926 ft 489 kts 101°
2026-05-05 04:16 38.38303 121.63898 36934 ft 489 kts 101°
2026-05-05 04:16 38.36881 121.72381 36934 ft 490 kts 101°
2026-05-05 04:17 38.35452 121.80870 36940 ft 490 kts 101°
2026-05-05 04:17 38.34026 121.89304 36929 ft 490 kts 101°
2026-05-05 04:18 38.32584 121.97786 36941 ft 491 kts 101°
2026-05-05 04:18 38.31134 122.06281 36957 ft 491 kts 102°
2026-05-05 04:19 38.29678 122.14776 36954 ft 491 kts 102°
2026-05-05 04:19 38.28215 122.23278 36959 ft 492 kts 102°
2026-05-05 04:20 38.26891 122.31817 36966 ft 492 kts 99°
2026-05-05 04:20 38.25628 122.40377 36960 ft 492 kts 106°
2026-05-05 04:21 38.24396 122.44429 36969 ft 492 kts 117°
2026-05-05 04:21 38.22645 122.48164 36980 ft 492 kts 126°
2026-05-05 04:21 38.18002 122.54532 36979 ft 491 kts 137°
2026-05-05 04:22 38.13932 122.59576 36982 ft 493 kts 136°
2026-05-05 04:22 38.08298 122.66823 36986 ft 494 kts 136°
2026-05-05 04:23 38.03497 122.73071 36993 ft 495 kts 136°
2026-05-05 04:23 37.98714 122.79288 36997 ft 495 kts 136°
2026-05-05 04:24 37.93866 122.85571 37003 ft 496 kts 136°
2026-05-05 04:25 37.87429 122.93888 37006 ft 496 kts 136°
2026-05-05 04:25 37.82593 123.00122 37011 ft 497 kts 136°
2026-05-05 04:26 37.77752 123.06351 37019 ft 497 kts 137°
2026-05-05 04:26 37.72934 123.12538 37024 ft 497 kts 137°
2026-05-05 04:27 37.68056 123.18790 37027 ft 497 kts 137°
2026-05-05 04:27 37.63227 123.24967 37029 ft 497 kts 137°
2026-05-05 04:28 37.58367 123.31173 37035 ft 497 kts 137°
2026-05-05 04:28 37.53884 123.37820 37040 ft 500 kts 129°
2026-05-05 04:29 37.49743 123.44878 37044 ft 501 kts 129°
2026-05-05 04:29 37.45599 123.51925 37044 ft 501 kts 129°
2026-05-05 04:30 37.41411 123.58953 37052 ft 502 kts 129°
2026-05-05 04:30 37.37211 123.65958 37050 ft 502 kts 130°
2026-05-05 04:31 37.32992 123.72984 37057 ft 503 kts 130°
2026-05-05 04:31 37.28773 123.80000 37058 ft 504 kts 130°
2026-05-05 04:32 37.24548 123.87012 37062 ft 504 kts 130°
2026-05-05 04:32 37.20315 123.94028 37066 ft 504 kts 129°
2026-05-05 04:32 37.18507 123.97753 37053 ft 508 kts 116°
2026-05-05 04:33 37.17338 124.01934 37065 ft 511 kts 104°